Free Severe Weather Alerts by Email and Text Message   

 
Follow iAlert.com on twitter @ialertcom
Search For Active Alerts in Your Area  
  Hi Guest:  [ Sign-up / Services ] [ Login ]

Current weather by "City, St" or "zip code"  

 

Advertise Here

Hazardous Weather Conditions

No active alerts for NEW YORK, NEW YORK

Current Conditions: NEW YORK, NEW YORK

Partly Cloudy


79.0 F

Last Updated on Jun 25 2017, 12:51 pm EDT
Humidity: 45%
Wind Speed: 4.6 mph
Barometer 29.99 in
Dewpoint: 55.9 F
Visibility: 10.00 mi
Precip: --
Heat Index: NA
Wind Chill: NA
Current conditions at:

New York City, Central Park, NY (KNYC)

Lat: 40.78 Lon: -73.966

Local Radar Image active severe weather and emergency alerts image image weather storm and storm spotter reports image weather observation monitoring service image
Local
Radar
Active
Alerts
Storm Reports Weather
Monitoring

Weather Alert Notification Services


ialert severe weather and emergency alerts by text message and email ialert daily weather forecast by email and text message service ialert real-time weather-observation monitoring and alert notification service ialert storm report monitoring alert notification

Observation History for NEW YORK, NEW YORK


Time Wind
(mph)
Vis
(mi)
Weather Precip (in) Temperature (F) Relative
Humidity
Wind
Chill
(°F)
Heat
Index
(°F)
Pressure
Air Dwpt altimeter
(in)
sea level
(mb)
12:51 pm EDT 4.6 10.00 Partly Cloudy -- 79.0 55.9 45% NA NA 29.99 1014.7
11:51 am EDT N 0.0 10.00 Mostly Cloudy -- 80.0 59.0 49% NA 81 30.01 1015.0
10:51 am EDT N 0.0 10.00 Fair -- 78.0 55.0 45% NA NA 30.02 1015.4
9:51 am EDT N 0.0 10.00 A Few Clouds -- 77.0 54.0 45% NA NA 30.01 1015.4
8:51 am EDT NE 3.5 10.00 A Few Clouds -- 75.0 57.0 54% NA NA 30.02 1015.4
7:51 am EDT N 0.0 10.00 Partly Cloudy -- 73.0 59.0 62% NA NA 30.02 1015.5
6:51 am EDT N 0.0 10.00 Fair -- 69.0 60.1 73% NA NA 30.01 1015.0
5:51 am EDT N 0.0 10.00 Fair -- 68.0 59.0 73% NA NA 29.99 1014.5
4:51 am EDT 3.5 10.00 Fair -- 70.0 57.9 66% NA NA 29.97 1014.0
3:51 am EDT N 0.0 10.00 Fair -- 71.0 59.0 66% NA NA 29.95 1013.3
2:51 am EDT N 0.0 10.00 Overcast -- 73.0 59.0 62% NA NA 29.95 1013.2
1:51 am EDT 4.6 10.00 Mostly Cloudy -- 73.0 57.9 59% NA NA 29.94 1013.0
12:51 am EDT 3.5 10.00 Fair -- 75.0 57.9 55% NA NA 29.95 1013.0
11:51 pm EDT 3.5 10.00 Fair -- 78.0 57.0 48% NA NA 29.92 1012.3
10:51 pm EDT 4.6 10.00 Fair -- 79.0 57.9 49% NA NA 29.91 1012.0
9:51 pm EDT 3.5 10.00 Fair -- 80.0 57.9 47% NA 81 29.90 1011.4
8:51 pm EDT 4.6 10.00 Fair -- 81.0 55.9 42% NA 81 29.86 1010.2
7:51 pm EDT W 5.8 10.00 Fair -- 82.0 55.9 41% NA 82 29.85 1009.8
6:51 pm EDT N 0.0 10.00 Fair -- 82.0 55.0 40% NA 81 29.83 1009.1
5:51 pm EDT W 9.2 10.00 Fair -- 83.0 53.1 36% NA 82 29.82 1008.9
4:51 pm EDT 3.5 10.00 Fair -- 82.0 53.1 37% NA 81 29.82 1008.6
3:51 pm EDT 10.00 Fair -- 83.0 55.0 38% NA 82 29.80 1008.0
2:51 pm EDT 6.9 10.00 Fair -- 83.0 57.0 41% NA 83 29.78 1007.3
1:51 pm EDT 10.00 Fair -- 83.0 54.0 37% NA 82 29.76 1006.9

Regional Weather Observation:


New York, La Guardia Airport, NY (KLGA)

Mostly Cloudy
83.0 F

Newark, Newark International Airport, NJ (KEWR)

Mostly Cloudy
84.0 F

New York, Kennedy International Airport, NY (KJFK)

Mostly Cloudy
80.0 F

Teterboro, Teterboro Airport, NJ (KTEB)

Partly Cloudy
83.0 F

Caldwell, Essex County Airport, NJ (KCDW)

Mostly Cloudy
82.0 F

Morristown Municipal, NJ (KMMU)

Partly Cloudy
81.0 F

Advertise Here


Advertise Here